Year,Month,Day,Hour,Minute,Value (Times are PST for temperature in C)
2015,06,28,00,00,19.10
2015,06,28,00,01,19.10
2015,06,28,00,02,19.10
2015,06,28,00,03,19.10
2015,06,28,00,04,19.00
2015,06,28,00,05,19.00
2015,06,28,00,06,19.00
2015,06,28,00,07,19.00
2015,06,28,00,08,19.00
2015,06,28,00,09,19.10
2015,06,28,00,10,19.00
2015,06,28,00,11,19.10
2015,06,28,00,12,19.10
2015,06,28,00,13,19.10
2015,06,28,00,14,19.10
2015,06,28,00,15,19.00
2015,06,28,00,16,19.00
2015,06,28,00,17,19.00
2015,06,28,00,18,19.00
2015,06,28,00,19,18.90
2015,06,28,00,20,18.90
2015,06,28,00,21,18.90
2015,06,28,00,22,18.90
2015,06,28,00,23,18.90
2015,06,28,00,24,18.90
2015,06,28,00,25,18.90
2015,06,28,00,26,18.80
2015,06,28,00,27,18.80
2015,06,28,00,28,18.80
2015,06,28,00,29,18.80
2015,06,28,00,30,18.80
2015,06,28,00,31,18.80
2015,06,28,00,32,18.80
2015,06,28,00,33,18.80
2015,06,28,00,34,18.80
2015,06,28,00,35,18.80
2015,06,28,00,36,18.80
2015,06,28,00,37,18.70
2015,06,28,00,38,18.70
2015,06,28,00,39,18.70
2015,06,28,00,40,18.70
2015,06,28,00,41,18.70
2015,06,28,00,42,18.60
2015,06,28,00,43,18.60
2015,06,28,00,44,18.60
2015,06,28,00,45,18.50
2015,06,28,00,46,18.50
2015,06,28,00,47,18.40
2015,06,28,00,48,18.40
2015,06,28,00,49,18.40
2015,06,28,00,50,18.40
2015,06,28,00,51,18.40
2015,06,28,00,52,18.40
2015,06,28,00,53,18.40
2015,06,28,00,54,18.40
2015,06,28,00,55,18.40
2015,06,28,00,56,18.40
2015,06,28,00,57,18.40
2015,06,28,00,58,18.40
2015,06,28,00,59,18.30
2015,06,28,01,00,18.30
2015,06,28,01,01,18.20
2015,06,28,01,02,18.20
2015,06,28,01,03,18.20
2015,06,28,01,04,18.20
2015,06,28,01,05,18.20
2015,06,28,01,06,18.20
2015,06,28,01,07,18.20
2015,06,28,01,08,18.20
2015,06,28,01,09,18.10
2015,06,28,01,10,18.10
2015,06,28,01,11,18.10
2015,06,28,01,12,18.10
2015,06,28,01,13,18.20
2015,06,28,01,14,18.20
2015,06,28,01,15,18.20
2015,06,28,01,16,18.30
2015,06,28,01,17,18.30
2015,06,28,01,18,18.30
2015,06,28,01,19,18.20
2015,06,28,01,20,18.20
2015,06,28,01,21,18.20
2015,06,28,01,22,18.20
2015,06,28,01,23,18.10
2015,06,28,01,24,18.10
2015,06,28,01,25,18.20
2015,06,28,01,26,18.20
2015,06,28,01,27,18.20
2015,06,28,01,28,18.20
2015,06,28,01,29,18.20
2015,06,28,01,30,18.20
2015,06,28,01,31,18.20
2015,06,28,01,32,18.20
2015,06,28,01,33,18.20
2015,06,28,01,34,18.20
2015,06,28,01,35,18.20
2015,06,28,01,36,18.10
2015,06,28,01,37,18.10
2015,06,28,01,38,18.00
2015,06,28,01,39,18.00
2015,06,28,01,40,18.00
2015,06,28,01,41,18.00
2015,06,28,01,42,18.00
2015,06,28,01,43,18.10
2015,06,28,01,44,18.10
2015,06,28,01,45,18.10
2015,06,28,01,46,18.10
2015,06,28,01,47,18.10
2015,06,28,01,48,18.20
2015,06,28,01,49,18.20
2015,06,28,01,50,18.20
2015,06,28,01,51,18.20
2015,06,28,01,52,18.20
2015,06,28,01,53,18.20
2015,06,28,01,54,18.20
2015,06,28,01,55,18.20
2015,06,28,01,56,18.20
2015,06,28,01,57,18.20
2015,06,28,01,58,18.30
2015,06,28,01,59,18.20
2015,06,28,02,00,18.20
2015,06,28,02,01,18.10
2015,06,28,02,02,18.10
2015,06,28,02,03,18.10
2015,06,28,02,04,18.10
2015,06,28,02,05,18.10
2015,06,28,02,06,18.10
2015,06,28,02,07,18.10
2015,06,28,02,08,18.10
2015,06,28,02,09,18.10
2015,06,28,02,10,18.10
2015,06,28,02,11,18.10
2015,06,28,02,12,18.10
2015,06,28,02,13,18.10
2015,06,28,02,14,18.10
2015,06,28,02,15,18.10
2015,06,28,02,16,18.00
2015,06,28,02,17,18.10
2015,06,28,02,18,18.10
2015,06,28,02,19,18.00
2015,06,28,02,20,18.10
2015,06,28,02,21,18.00
2015,06,28,02,22,18.00
2015,06,28,02,23,18.00
2015,06,28,02,24,18.00
2015,06,28,02,25,18.00
2015,06,28,02,26,18.00
2015,06,28,02,27,18.00
2015,06,28,02,28,18.00
2015,06,28,02,29,18.00
2015,06,28,02,30,18.10
2015,06,28,02,31,18.10
2015,06,28,02,32,18.10
2015,06,28,02,33,18.00
2015,06,28,02,34,18.00
2015,06,28,02,35,18.00
2015,06,28,02,36,18.00
2015,06,28,02,37,18.00
2015,06,28,02,38,18.00
2015,06,28,02,39,18.00
2015,06,28,02,40,18.00
2015,06,28,02,41,18.20
2015,06,28,02,42,18.20
2015,06,28,02,43,18.20
2015,06,28,02,44,18.20
2015,06,28,02,45,18.20
2015,06,28,02,46,18.10
2015,06,28,02,47,18.10
2015,06,28,02,48,18.10
2015,06,28,02,49,18.10
2015,06,28,02,50,18.10
2015,06,28,02,51,18.20
2015,06,28,02,52,18.20
2015,06,28,02,53,18.20
2015,06,28,02,54,18.20
2015,06,28,02,55,18.30
2015,06,28,02,56,18.40
2015,06,28,02,57,18.50
2015,06,28,02,58,18.60
2015,06,28,02,59,18.70
2015,06,28,03,00,18.80
2015,06,28,03,01,18.80
2015,06,28,03,02,18.70
2015,06,28,03,03,18.70
2015,06,28,03,04,18.70
2015,06,28,03,05,18.80
2015,06,28,03,06,18.90
2015,06,28,03,07,19.00
2015,06,28,03,08,19.10
2015,06,28,03,09,19.20
2015,06,28,03,10,19.30
2015,06,28,03,11,19.40
2015,06,28,03,12,19.30
2015,06,28,03,13,19.40
2015,06,28,03,14,19.40
2015,06,28,03,15,19.40
2015,06,28,03,16,19.30
2015,06,28,03,17,19.30
2015,06,28,03,18,19.40
2015,06,28,03,19,19.50
2015,06,28,03,20,19.60
2015,06,28,03,21,19.60
2015,06,28,03,22,19.70
2015,06,28,03,23,19.70
2015,06,28,03,24,19.80
2015,06,28,03,25,19.90
2015,06,28,03,26,20.00
2015,06,28,03,27,20.10
2015,06,28,03,28,20.10
2015,06,28,03,29,20.20
2015,06,28,03,30,20.20
2015,06,28,03,31,20.30
2015,06,28,03,32,20.40
2015,06,28,03,33,20.50
2015,06,28,03,34,20.50
2015,06,28,03,35,20.60
2015,06,28,03,36,20.60
2015,06,28,03,37,20.70
2015,06,28,03,38,20.70
2015,06,28,03,39,20.80
2015,06,28,03,40,20.90
2015,06,28,03,41,21.00
2015,06,28,03,42,21.10
2015,06,28,03,43,21.20
2015,06,28,03,44,21.30
2015,06,28,03,45,21.40
2015,06,28,03,46,21.50
2015,06,28,03,47,21.60
2015,06,28,03,48,21.70
2015,06,28,03,49,21.80
2015,06,28,03,50,21.80
2015,06,28,03,51,21.80
2015,06,28,03,52,21.90
2015,06,28,03,53,21.90
2015,06,28,03,54,21.90
2015,06,28,03,55,21.90
2015,06,28,03,56,21.90
2015,06,28,03,57,21.80
2015,06,28,03,58,21.80
2015,06,28,03,59,21.80
2015,06,28,04,00,21.80
2015,06,28,04,01,21.80
2015,06,28,04,02,21.70
2015,06,28,04,03,21.70
2015,06,28,04,04,21.60
2015,06,28,04,05,21.50
2015,06,28,04,06,21.40
2015,06,28,04,07,21.40
2015,06,28,04,08,21.40
2015,06,28,04,09,21.30
2015,06,28,04,10,21.30
2015,06,28,04,11,21.30
2015,06,28,04,12,21.30
2015,06,28,04,13,21.30
2015,06,28,04,14,21.20
2015,06,28,04,15,21.20
2015,06,28,04,16,21.20
2015,06,28,04,17,21.20
2015,06,28,04,18,21.20
2015,06,28,04,19,21.20
2015,06,28,04,20,21.20
2015,06,28,04,21,21.20
2015,06,28,04,22,21.20
2015,06,28,04,23,21.30
2015,06,28,04,24,21.30
2015,06,28,04,25,21.30
2015,06,28,04,26,21.30
2015,06,28,04,27,21.30
2015,06,28,04,28,21.30
2015,06,28,04,29,21.40
2015,06,28,04,30,21.40
2015,06,28,04,31,21.40
2015,06,28,04,32,21.40
2015,06,28,04,33,21.40
2015,06,28,04,34,21.40
2015,06,28,04,35,21.40
2015,06,28,04,36,21.40
2015,06,28,04,37,21.40
2015,06,28,04,38,21.40
2015,06,28,04,39,21.40
2015,06,28,04,40,21.40
2015,06,28,04,41,21.40
2015,06,28,04,42,21.40
2015,06,28,04,43,21.40
2015,06,28,04,44,21.30
2015,06,28,04,45,21.30
2015,06,28,04,46,21.30
2015,06,28,04,47,21.20
2015,06,28,04,48,21.20
2015,06,28,04,49,21.20
2015,06,28,04,50,21.20
2015,06,28,04,51,21.10
2015,06,28,04,52,21.10
2015,06,28,04,53,21.00
2015,06,28,04,54,21.00
2015,06,28,04,55,20.90
2015,06,28,04,56,20.90
2015,06,28,04,57,20.90
2015,06,28,04,58,20.90
2015,06,28,04,59,20.90
2015,06,28,05,00,20.90
2015,06,28,05,01,20.90
2015,06,28,05,02,20.80
2015,06,28,05,03,20.80
2015,06,28,05,04,20.80
2015,06,28,05,05,20.90
2015,06,28,05,06,20.90
2015,06,28,05,07,20.90
2015,06,28,05,08,20.90
2015,06,28,05,09,20.90
2015,06,28,05,10,20.80
2015,06,28,05,11,20.80
2015,06,28,05,12,20.80
2015,06,28,05,13,20.70
2015,06,28,05,14,20.70
2015,06,28,05,15,20.80
2015,06,28,05,16,20.90
2015,06,28,05,17,20.90
2015,06,28,05,18,21.00
2015,06,28,05,19,21.00
2015,06,28,05,20,21.00
2015,06,28,05,21,21.00
2015,06,28,05,22,21.00
2015,06,28,05,23,21.00
2015,06,28,05,24,21.00
2015,06,28,05,25,21.00
2015,06,28,05,26,20.90
2015,06,28,05,27,20.90
2015,06,28,05,28,20.90
2015,06,28,05,29,20.90
2015,06,28,05,30,21.00
2015,06,28,05,31,21.00
2015,06,28,05,32,21.00
2015,06,28,05,33,21.00
2015,06,28,05,34,21.00
2015,06,28,05,35,21.00
2015,06,28,05,36,20.90
2015,06,28,05,37,20.90
2015,06,28,05,38,20.90
2015,06,28,05,39,20.90
2015,06,28,05,40,20.90
2015,06,28,05,41,20.90
2015,06,28,05,42,20.90
2015,06,28,05,43,20.90
2015,06,28,05,44,20.90
2015,06,28,05,45,20.90
2015,06,28,05,46,20.90
2015,06,28,05,47,20.90
2015,06,28,05,48,20.80
2015,06,28,05,49,20.80
2015,06,28,05,50,20.70
2015,06,28,05,51,20.70
2015,06,28,05,52,20.70
2015,06,28,05,53,20.70
2015,06,28,05,54,20.70
2015,06,28,05,55,20.70
2015,06,28,05,56,20.70
2015,06,28,05,57,20.70
2015,06,28,05,58,20.80
2015,06,28,05,59,20.80
2015,06,28,06,00,20.80
2015,06,28,06,01,20.80
2015,06,28,06,02,20.80
2015,06,28,06,03,20.90
2015,06,28,06,04,20.90
2015,06,28,06,05,20.90
2015,06,28,06,06,20.90
2015,06,28,06,07,20.90
2015,06,28,06,08,20.90
2015,06,28,06,09,20.90
2015,06,28,06,10,20.90
2015,06,28,06,11,20.90
2015,06,28,06,12,20.90
2015,06,28,06,13,20.90
2015,06,28,06,14,20.90
2015,06,28,06,15,20.80
2015,06,28,06,16,20.80
2015,06,28,06,17,20.80
2015,06,28,06,18,20.80
2015,06,28,06,19,20.80
2015,06,28,06,20,20.80
2015,06,28,06,21,20.80
2015,06,28,06,22,20.80
2015,06,28,06,23,20.80
2015,06,28,06,24,20.80
2015,06,28,06,25,20.80
2015,06,28,06,26,20.70
2015,06,28,06,27,20.70
2015,06,28,06,28,20.70
2015,06,28,06,29,20.80
2015,06,28,06,30,20.80
2015,06,28,06,31,20.80
2015,06,28,06,32,20.90
2015,06,28,06,33,20.90
2015,06,28,06,34,20.90
2015,06,28,06,35,20.90
2015,06,28,06,36,20.90
2015,06,28,06,37,20.90
2015,06,28,06,38,20.90
2015,06,28,06,39,20.90
2015,06,28,06,40,20.90
2015,06,28,06,41,21.00
2015,06,28,06,42,21.00
2015,06,28,06,43,21.10
2015,06,28,06,44,21.10
2015,06,28,06,45,21.10
2015,06,28,06,46,21.20
2015,06,28,06,47,21.20
2015,06,28,06,48,21.20
2015,06,28,06,49,21.20
2015,06,28,06,50,21.30
2015,06,28,06,51,21.30
2015,06,28,06,52,21.30
2015,06,28,06,53,21.30
2015,06,28,06,54,21.30
2015,06,28,06,55,21.30
2015,06,28,06,56,21.30
2015,06,28,06,57,21.30
2015,06,28,06,58,21.30
2015,06,28,06,59,21.30
2015,06,28,07,00,21.30
2015,06,28,07,01,21.30
2015,06,28,07,02,21.30
2015,06,28,07,03,21.30
2015,06,28,07,04,21.30
2015,06,28,07,05,21.30
2015,06,28,07,06,21.30
2015,06,28,07,07,21.30
2015,06,28,07,08,21.30
2015,06,28,07,09,21.40
2015,06,28,07,10,21.30
2015,06,28,07,11,21.40
2015,06,28,07,12,21.40
2015,06,28,07,13,21.40
2015,06,28,07,14,21.40
2015,06,28,07,15,21.40
2015,06,28,07,16,21.50
2015,06,28,07,17,21.50
2015,06,28,07,18,21.60
2015,06,28,07,19,21.60
2015,06,28,07,20,21.60
2015,06,28,07,21,21.60
2015,06,28,07,22,21.60
2015,06,28,07,23,21.60
2015,06,28,07,24,21.60
2015,06,28,07,25,21.60
2015,06,28,07,26,21.60
2015,06,28,07,27,21.60
2015,06,28,07,28,21.60
2015,06,28,07,29,21.60
2015,06,28,07,30,21.60
2015,06,28,07,31,21.70
2015,06,28,07,32,21.70
2015,06,28,07,33,21.70
2015,06,28,07,34,21.70
2015,06,28,07,35,21.70
2015,06,28,07,36,21.70
2015,06,28,07,37,21.70
2015,06,28,07,38,21.70
2015,06,28,07,39,21.70
2015,06,28,07,40,21.70
2015,06,28,07,41,21.70
2015,06,28,07,42,21.70
2015,06,28,07,43,21.70
2015,06,28,07,44,21.70
2015,06,28,07,45,21.70
2015,06,28,07,46,21.70
2015,06,28,07,47,21.70
2015,06,28,07,48,21.70
2015,06,28,07,49,21.70
2015,06,28,07,50,21.70
2015,06,28,07,51,21.60
2015,06,28,07,52,21.60
2015,06,28,07,53,21.60
2015,06,28,07,54,21.60
2015,06,28,07,55,21.60
2015,06,28,07,56,21.60
2015,06,28,07,57,21.60
2015,06,28,07,58,21.60
2015,06,28,07,59,21.60
2015,06,28,08,00,21.60
2015,06,28,08,01,21.60
2015,06,28,08,02,21.60
2015,06,28,08,03,21.60
2015,06,28,08,04,21.60
2015,06,28,08,05,21.60
2015,06,28,08,06,21.60
2015,06,28,08,07,21.60
2015,06,28,08,08,21.60
2015,06,28,08,09,21.50
2015,06,28,08,10,21.50
2015,06,28,08,11,21.50
2015,06,28,08,12,21.50
2015,06,28,08,13,21.40
2015,06,28,08,14,21.40
2015,06,28,08,15,21.40
2015,06,28,08,16,21.40
2015,06,28,08,17,21.40
2015,06,28,08,18,21.40
2015,06,28,08,19,21.40
2015,06,28,08,20,21.40
2015,06,28,08,21,21.50
2015,06,28,08,22,21.50
2015,06,28,08,23,21.50
2015,06,28,08,24,21.50
2015,06,28,08,25,21.50
2015,06,28,08,26,21.60
2015,06,28,08,27,21.60
2015,06,28,08,28,21.60
2015,06,28,08,29,21.60
2015,06,28,08,30,21.60
2015,06,28,08,31,21.70
2015,06,28,08,32,21.70
2015,06,28,08,33,21.80
2015,06,28,08,34,21.80
2015,06,28,08,35,21.80
2015,06,28,08,36,21.90
2015,06,28,08,37,21.90
2015,06,28,08,38,21.90
2015,06,28,08,39,21.90
2015,06,28,08,40,21.90
2015,06,28,08,41,21.90
2015,06,28,08,42,22.00
2015,06,28,08,43,22.00
2015,06,28,08,44,22.10
2015,06,28,08,45,22.10
2015,06,28,08,46,22.10
2015,06,28,08,47,22.10
2015,06,28,08,48,22.10
2015,06,28,08,49,22.10
2015,06,28,08,50,22.20
2015,06,28,08,51,22.20
2015,06,28,08,52,22.30
2015,06,28,08,53,22.30
2015,06,28,08,54,22.40
2015,06,28,08,55,22.40
2015,06,28,08,56,22.40
2015,06,28,08,57,22.50
2015,06,28,08,58,22.60
2015,06,28,08,59,22.60
2015,06,28,09,00,22.60
2015,06,28,09,01,22.70
2015,06,28,09,02,22.70
2015,06,28,09,03,22.80
2015,06,28,09,04,22.90
2015,06,28,09,05,23.00
2015,06,28,09,06,23.00
2015,06,28,09,07,23.00
2015,06,28,09,08,23.00
2015,06,28,09,09,23.00
2015,06,28,09,10,22.90
2015,06,28,09,11,22.80
2015,06,28,09,12,22.70
2015,06,28,09,13,22.70
2015,06,28,09,14,22.70
2015,06,28,09,15,22.70
2015,06,28,09,16,22.70
2015,06,28,09,17,22.70
2015,06,28,09,18,22.80
2015,06,28,09,19,22.90
2015,06,28,09,20,23.00
2015,06,28,09,21,23.10
2015,06,28,09,22,23.20
2015,06,28,09,23,23.30
2015,06,28,09,24,23.30
2015,06,28,09,25,23.30
2015,06,28,09,26,23.30
2015,06,28,09,27,23.30
2015,06,28,09,28,23.30
2015,06,28,09,29,23.30
2015,06,28,09,30,23.20
2015,06,28,09,31,23.20
2015,06,28,09,32,23.10
2015,06,28,09,33,23.00
2015,06,28,09,34,22.90
2015,06,28,09,35,22.80
2015,06,28,09,36,22.80
2015,06,28,09,37,22.80
2015,06,28,09,38,22.80
2015,06,28,09,39,22.70
2015,06,28,09,40,22.50
2015,06,28,09,41,22.40
2015,06,28,09,42,22.20
2015,06,28,09,43,22.10
2015,06,28,09,44,22.10
2015,06,28,09,45,22.10
2015,06,28,09,46,22.10
2015,06,28,09,47,22.10
2015,06,28,09,48,22.10
2015,06,28,09,49,22.10
2015,06,28,09,50,22.20
2015,06,28,09,51,22.20
2015,06,28,09,52,22.20
2015,06,28,09,53,22.30
2015,06,28,09,54,22.30
2015,06,28,09,55,22.30
2015,06,28,09,56,22.30
2015,06,28,09,57,22.30
2015,06,28,09,58,22.20
2015,06,28,09,59,22.20
2015,06,28,10,00,22.20
2015,06,28,10,01,22.20
2015,06,28,10,02,22.20
2015,06,28,10,03,22.20
2015,06,28,10,04,22.20
2015,06,28,10,05,22.20
2015,06,28,10,06,22.30
2015,06,28,10,07,22.20
2015,06,28,10,08,22.20
2015,06,28,10,09,22.20
2015,06,28,10,10,22.20
2015,06,28,10,11,22.20
2015,06,28,10,12,22.30
2015,06,28,10,13,22.30
2015,06,28,10,14,22.30
2015,06,28,10,15,22.30
2015,06,28,10,16,22.30
2015,06,28,10,17,22.30
2015,06,28,10,18,22.40
2015,06,28,10,19,22.40
2015,06,28,10,20,22.50
2015,06,28,10,21,22.50
2015,06,28,10,22,22.60
2015,06,28,10,23,22.70
2015,06,28,10,24,22.70
2015,06,28,10,25,22.80
2015,06,28,10,26,22.80
2015,06,28,10,27,22.80
2015,06,28,10,28,22.90
2015,06,28,10,29,22.90
2015,06,28,10,30,23.00
2015,06,28,10,31,23.00
2015,06,28,10,32,23.10
2015,06,28,10,33,23.10
2015,06,28,10,34,23.20
2015,06,28,10,35,23.20
2015,06,28,10,36,23.20
2015,06,28,10,37,23.20
2015,06,28,10,38,23.10
2015,06,28,10,39,23.20
2015,06,28,10,40,23.20
2015,06,28,10,41,23.20
2015,06,28,10,42,23.30
2015,06,28,10,43,23.40
2015,06,28,10,44,23.50
2015,06,28,10,45,23.60
2015,06,28,10,46,23.70
2015,06,28,10,47,23.70
2015,06,28,10,48,23.70
2015,06,28,10,49,23.80
2015,06,28,10,50,23.90
2015,06,28,10,51,24.00
2015,06,28,10,52,24.10
2015,06,28,10,53,24.20
2015,06,28,10,54,24.20
2015,06,28,10,55,24.20
2015,06,28,10,56,24.10
2015,06,28,10,57,24.00
2015,06,28,10,58,24.00
2015,06,28,10,59,24.00
2015,06,28,11,00,24.00
2015,06,28,11,01,24.00
2015,06,28,11,02,23.90
2015,06,28,11,03,23.80
2015,06,28,11,04,23.70
2015,06,28,11,05,23.70
2015,06,28,11,06,23.70
2015,06,28,11,07,23.70
2015,06,28,11,08,23.70
2015,06,28,11,09,23.70
2015,06,28,11,10,23.70
2015,06,28,11,11,23.70
2015,06,28,11,12,23.60
2015,06,28,11,13,23.60
2015,06,28,11,14,23.60
2015,06,28,11,15,23.60
2015,06,28,11,16,23.70
2015,06,28,11,17,23.80
2015,06,28,11,18,23.80
2015,06,28,11,19,23.80
2015,06,28,11,20,23.90
2015,06,28,11,21,23.80
2015,06,28,11,22,23.80
2015,06,28,11,23,23.80
2015,06,28,11,24,23.80
2015,06,28,11,25,23.80
2015,06,28,11,26,23.80
2015,06,28,11,27,23.90
2015,06,28,11,28,23.90
2015,06,28,11,29,24.00
2015,06,28,11,30,24.10
2015,06,28,11,31,24.10
2015,06,28,11,32,24.20
2015,06,28,11,33,24.20
2015,06,28,11,34,24.20
2015,06,28,11,35,24.20
2015,06,28,11,36,24.20
2015,06,28,11,37,24.30
2015,06,28,11,38,24.30
2015,06,28,11,39,24.40
2015,06,28,11,40,24.50
2015,06,28,11,41,24.60
2015,06,28,11,42,24.60
2015,06,28,11,43,24.60
2015,06,28,11,44,24.60
2015,06,28,11,45,24.70
2015,06,28,11,46,24.70
2015,06,28,11,47,24.80
2015,06,28,11,48,24.80
2015,06,28,11,49,24.90
2015,06,28,11,50,25.00
2015,06,28,11,51,25.10
2015,06,28,11,52,25.20
2015,06,28,11,53,25.30
2015,06,28,11,54,25.40
2015,06,28,11,55,25.50
2015,06,28,11,56,25.60
2015,06,28,11,57,25.70
2015,06,28,11,58,25.70
2015,06,28,11,59,25.80
2015,06,28,12,00,25.80
2015,06,28,12,01,25.90
2015,06,28,12,02,26.00
2015,06,28,12,03,26.10
2015,06,28,12,04,26.10
2015,06,28,12,05,26.10
2015,06,28,12,06,26.10
2015,06,28,12,07,26.10
2015,06,28,12,08,26.10
2015,06,28,12,09,26.10
2015,06,28,12,10,26.10
2015,06,28,12,11,26.20
2015,06,28,12,12,26.20
2015,06,28,12,13,26.20
2015,06,28,12,14,26.20
2015,06,28,12,15,26.30
2015,06,28,12,16,26.20
2015,06,28,12,17,26.20
2015,06,28,12,18,26.20
2015,06,28,12,19,26.10
2015,06,28,12,20,26.10
2015,06,28,12,21,26.00
2015,06,28,12,22,26.00
2015,06,28,12,23,25.90
2015,06,28,12,24,25.90
2015,06,28,12,25,25.90
2015,06,28,12,26,26.00
2015,06,28,12,27,26.00
2015,06,28,12,28,26.10
2015,06,28,12,29,26.10
2015,06,28,12,30,26.20
2015,06,28,12,31,26.30
2015,06,28,12,32,26.40
2015,06,28,12,33,26.50
2015,06,28,12,34,26.50
2015,06,28,12,35,26.50
2015,06,28,12,36,26.50
2015,06,28,12,37,26.40
2015,06,28,12,38,26.40
2015,06,28,12,39,26.40
2015,06,28,12,40,26.40
2015,06,28,12,41,26.40
2015,06,28,12,42,26.30
2015,06,28,12,43,26.30
2015,06,28,12,44,26.30
2015,06,28,12,45,26.40
2015,06,28,12,46,26.40
2015,06,28,12,47,26.40
2015,06,28,12,48,26.40
2015,06,28,12,49,26.20
2015,06,28,12,50,26.10
2015,06,28,12,51,25.90
2015,06,28,12,52,25.80
2015,06,28,12,53,25.70
2015,06,28,12,54,25.60
2015,06,28,12,55,25.50
2015,06,28,12,56,25.50
2015,06,28,12,57,25.50
2015,06,28,12,58,25.50
2015,06,28,12,59,25.50
2015,06,28,13,00,25.50
2015,06,28,13,01,25.60
2015,06,28,13,02,25.60
2015,06,28,13,03,25.60
2015,06,28,13,04,25.60
2015,06,28,13,05,25.60
2015,06,28,13,06,25.60
2015,06,28,13,07,25.60
2015,06,28,13,08,25.50
2015,06,28,13,09,25.50
2015,06,28,13,10,25.60
2015,06,28,13,11,25.60
2015,06,28,13,12,25.60
2015,06,28,13,13,25.60
2015,06,28,13,14,25.50
2015,06,28,13,15,25.40
2015,06,28,13,16,25.40
2015,06,28,13,17,25.30
2015,06,28,13,18,25.30
2015,06,28,13,19,25.30
2015,06,28,13,20,25.30
2015,06,28,13,21,25.30
2015,06,28,13,22,25.30
2015,06,28,13,23,25.30
2015,06,28,13,24,25.30
2015,06,28,13,25,25.40
2015,06,28,13,26,25.40
2015,06,28,13,27,25.50
2015,06,28,13,28,25.50
2015,06,28,13,29,25.50
2015,06,28,13,30,25.50
2015,06,28,13,31,25.40
2015,06,28,13,32,25.30
2015,06,28,13,33,25.20
2015,06,28,13,34,25.20
2015,06,28,13,35,25.10
2015,06,28,13,36,25.10
2015,06,28,13,37,25.10
2015,06,28,13,38,25.00
2015,06,28,13,39,25.00
2015,06,28,13,40,24.80
2015,06,28,13,41,24.60
2015,06,28,13,42,24.40
2015,06,28,13,43,24.20
2015,06,28,13,44,24.10
2015,06,28,13,45,24.00
2015,06,28,13,46,23.90
2015,06,28,13,47,23.90
2015,06,28,13,48,23.80
2015,06,28,13,49,23.80
2015,06,28,13,50,23.80
2015,06,28,13,51,23.80
2015,06,28,13,52,23.80
2015,06,28,13,53,23.80
2015,06,28,13,54,23.80
2015,06,28,13,55,23.80
2015,06,28,13,56,23.90
2015,06,28,13,57,24.00
2015,06,28,13,58,24.00
2015,06,28,13,59,24.10
2015,06,28,14,00,24.20
2015,06,28,14,01,24.20
2015,06,28,14,02,24.20
2015,06,28,14,03,24.30
2015,06,28,14,04,24.30
2015,06,28,14,05,24.40
2015,06,28,14,06,24.40
2015,06,28,14,07,24.50
2015,06,28,14,08,24.50
2015,06,28,14,09,24.60
2015,06,28,14,10,24.70
2015,06,28,14,11,24.70
2015,06,28,14,12,24.70
2015,06,28,14,13,24.70
2015,06,28,14,14,24.60
2015,06,28,14,15,24.60
2015,06,28,14,16,24.60
2015,06,28,14,17,24.60
2015,06,28,14,18,24.60
2015,06,28,14,19,24.70
2015,06,28,14,20,24.70
2015,06,28,14,21,24.80
2015,06,28,14,22,24.80
2015,06,28,14,23,24.80
2015,06,28,14,24,24.80
2015,06,28,14,25,24.90
2015,06,28,14,26,24.90
2015,06,28,14,27,24.90
2015,06,28,14,28,24.90
2015,06,28,14,29,24.90
2015,06,28,14,30,24.90
2015,06,28,14,31,24.90
2015,06,28,14,32,24.90
2015,06,28,14,33,24.90
2015,06,28,14,34,24.90
2015,06,28,14,35,24.90
2015,06,28,14,36,24.90
2015,06,28,14,37,24.80
2015,06,28,14,38,24.80
2015,06,28,14,39,24.80
2015,06,28,14,40,24.70
2015,06,28,14,41,24.70
2015,06,28,14,42,24.70
2015,06,28,14,43,24.70
2015,06,28,14,44,24.60
2015,06,28,14,45,24.60
2015,06,28,14,46,24.60
2015,06,28,14,47,24.50
2015,06,28,14,48,24.50
2015,06,28,14,49,24.40
2015,06,28,14,50,24.40
2015,06,28,14,51,24.40
2015,06,28,14,52,24.30
2015,06,28,14,53,24.30
2015,06,28,14,54,24.20
2015,06,28,14,55,24.20
2015,06,28,14,56,24.20
2015,06,28,14,57,24.20
2015,06,28,14,58,24.20
2015,06,28,14,59,24.10
2015,06,28,15,00,24.10
2015,06,28,15,01,24.10
2015,06,28,15,02,24.10
2015,06,28,15,03,24.00
2015,06,28,15,04,24.00
2015,06,28,15,05,24.00
2015,06,28,15,06,24.10
2015,06,28,15,07,24.10
2015,06,28,15,08,24.20
2015,06,28,15,09,24.20
2015,06,28,15,10,24.20
2015,06,28,15,11,24.30
2015,06,28,15,12,24.30
2015,06,28,15,13,24.30
2015,06,28,15,14,24.30
2015,06,28,15,15,24.30
2015,06,28,15,16,24.30
2015,06,28,15,17,24.30
2015,06,28,15,18,24.30
2015,06,28,15,19,24.30
2015,06,28,15,20,24.30
2015,06,28,15,21,24.30
2015,06,28,15,22,24.30
2015,06,28,15,23,24.30
2015,06,28,15,24,24.30
2015,06,28,15,25,24.30
2015,06,28,15,26,24.30
2015,06,28,15,27,24.30
2015,06,28,15,28,24.30
2015,06,28,15,29,24.30
2015,06,28,15,30,24.30
2015,06,28,15,31,24.30
2015,06,28,15,32,24.30
2015,06,28,15,33,24.30
2015,06,28,15,34,24.30
2015,06,28,15,35,24.30
2015,06,28,15,36,24.30
2015,06,28,15,37,24.40
2015,06,28,15,38,24.30
2015,06,28,15,39,24.30
2015,06,28,15,40,24.30
2015,06,28,15,41,24.40
2015,06,28,15,42,24.40
2015,06,28,15,43,24.40
2015,06,28,15,44,24.50
2015,06,28,15,45,24.50
2015,06,28,15,46,24.60
2015,06,28,15,47,24.60
2015,06,28,15,48,24.60
2015,06,28,15,49,24.60
2015,06,28,15,50,24.70
2015,06,28,15,51,24.70
2015,06,28,15,52,24.70
2015,06,28,15,53,24.70
2015,06,28,15,54,24.80
2015,06,28,15,55,24.80
2015,06,28,15,56,24.80
2015,06,28,15,57,24.80
2015,06,28,15,58,24.70
2015,06,28,15,59,24.70
2015,06,28,16,00,24.60
2015,06,28,16,01,24.60
2015,06,28,16,02,24.60
2015,06,28,16,03,24.60
2015,06,28,16,04,24.70
2015,06,28,16,05,24.70
2015,06,28,16,06,24.60
2015,06,28,16,07,24.60
2015,06,28,16,08,24.60
2015,06,28,16,09,24.60
2015,06,28,16,10,24.60
2015,06,28,16,11,24.60
2015,06,28,16,12,24.60
2015,06,28,16,13,24.60
2015,06,28,16,14,24.70
2015,06,28,16,15,24.70
2015,06,28,16,16,24.70
2015,06,28,16,17,24.70
2015,06,28,16,18,24.70
2015,06,28,16,19,24.70
2015,06,28,16,20,24.70
2015,06,28,16,21,24.60
2015,06,28,16,22,24.50
2015,06,28,16,23,24.50
2015,06,28,16,24,24.60
2015,06,28,16,25,24.60
2015,06,28,16,26,24.70
2015,06,28,16,27,24.70
2015,06,28,16,28,24.60
2015,06,28,16,29,24.50
2015,06,28,16,30,24.30
2015,06,28,16,31,24.10
2015,06,28,16,32,23.90
2015,06,28,16,33,23.70
2015,06,28,16,34,23.60
2015,06,28,16,35,23.60
2015,06,28,16,36,23.50
2015,06,28,16,37,23.50
2015,06,28,16,38,23.50
2015,06,28,16,39,23.60
2015,06,28,16,40,23.60
2015,06,28,16,41,23.60
2015,06,28,16,42,23.60
2015,06,28,16,43,23.70
2015,06,28,16,44,23.70
2015,06,28,16,45,23.70
2015,06,28,16,46,23.70
2015,06,28,16,47,23.70
2015,06,28,16,48,23.70
2015,06,28,16,49,23.70
2015,06,28,16,50,23.70
2015,06,28,16,51,23.70
2015,06,28,16,52,23.70
2015,06,28,16,53,23.70
2015,06,28,16,54,23.70
2015,06,28,16,55,23.70
2015,06,28,16,56,23.70
2015,06,28,16,57,23.70
2015,06,28,16,58,23.70
2015,06,28,16,59,23.60
2015,06,28,17,00,23.60
2015,06,28,17,01,23.50
2015,06,28,17,02,23.40
2015,06,28,17,03,23.30
2015,06,28,17,04,23.20
2015,06,28,17,05,23.10
2015,06,28,17,06,23.00
2015,06,28,17,07,23.00
2015,06,28,17,08,22.90
2015,06,28,17,09,22.90
2015,06,28,17,10,22.80
2015,06,28,17,11,22.70
2015,06,28,17,12,22.60
2015,06,28,17,13,22.50
2015,06,28,17,14,22.40
2015,06,28,17,15,22.40
2015,06,28,17,16,22.40
2015,06,28,17,17,22.30
2015,06,28,17,18,22.30
2015,06,28,17,19,22.30